COSMOS 2433 [GLONASS-M] 
1 32275U 07052A   19258.53443230 -.00000043  00000-0  10000-3 0  9994
2 32275  65.8872  38.1195 0002231 201.8702 190.1697  2.13104379 92534
COSMOS 2432 [GLONASS-M] 
1 32276U 07052B   19258.57525253 -.00000042  00000-0  10000-3 0  9994
2 32276  65.8999  38.2039 0008399 337.6774  36.5764  2.13103696 92530
COSMOS 2431 [GLONASS-M] 
1 32277U 07052C   19258.73884944 -.00000042  00000-0  00000-0 0  9994
2 32277  65.9035  38.0850 0015854 178.3826 223.8435  2.13208801 92635
SL-12 R/B(2)            
1 32278U 07052D   19258.71641153 -.00000042  00000-0  00000-0 0  9996
2 32278  65.8971  37.7197 0016605 202.0911 157.6211  2.13392932 92522
SL-12 R/B(AUX MOTOR)    
1 32280U 07052F   19257.59122570 -.00000015  00000-0 -70499-4 0  9995
2 32280  64.9442  88.4615 5731253 345.7245   3.2290  4.21874254 88913
SL-12 R/B(AUX MOTOR)    
1 32281U 07052G   19258.18561366 -.00000031  00000-0 -49246-4 0  9996
2 32281  65.0949  75.0903 5716373 334.9920   5.7120  4.23627706183427
SL-12 DEB               
1 41677U 07052J   19258.52579386  .00000376  00000-0  43001-3 0  9996
2 41677  64.8305  48.5593 5718768 349.2931   2.3431  4.36503475 79680
SL-12 DEB               
1 41679U 07052L   19258.52601598  .00002462  00000-0  19659-2 0  9998
2 41679  64.2273  60.9102 5746040  15.0294 356.6194  4.32802126 79084
SL-12 DEB               
1 41681U 07052N   19257.32232010 -.00000127  00000-0  54712-4 0  9995
2 41681  65.1309  30.1639 5699022 335.8890   5.5082  4.38197852 80743
SL-12 DEB               
1 41683U 07052Q   19258.62528594  .00005605  00000-0  23709-2 0  9991
2 41683  63.8302  40.2089 5722614  32.2088 352.4774  4.41121379 80045
SL-12 DEB               
1 41686U 07052T   19258.54511037  .00002440  00000-0  21127-2 0  9995
2 41686  64.2111  62.6615 5750281  16.2160 356.3619  4.31474808 78953
SL-12 DEB               
1 41688U 07052V   19257.61952334  .00002052  00000-0  15736-2 0  9991
2 41688  64.2154  61.1791 5750269  16.6430 356.2663  4.32407279 78835
SL-12 DEB               
1 41694U 07052AB  19249.07843365  .00000010  00000-0 -12062-3 0  9995
2 41694  65.6461 103.0425 5669311 317.9745  10.2747  4.21488395 69871
SL-12 DEB               
1 43376U 07052AC  19251.67744023  .00000025  00000-0  23941-3 0  9997
2 43376  65.1596 132.1347 5776914 340.6816   4.3501  4.09377318 72100
SL-12 DEB               
1 43377U 07052AD  19256.46303582  .00000359  00000-0  30109-3 0  9995
2 43377  64.4711  64.3878 5780845   6.6920 358.5202  4.27141028 55100
SL-12 DEB               
1 43379U 07052AF  19258.58522080  .00004658  00000-0  18404-2 0  9997
2 43379  63.9864  45.1805 5758055  24.1887 354.5036  4.36320323 78087
SL-12 DEB               
1 43541U 07052AH  19257.08321965 -.00000034  00000-0  27453-5 0  9993
2 43541  64.9257  71.5247 5750051 336.6200   5.2501  4.25275956 18626